sat.trackr.live / text

‹ back to catalog

STARLINK-36261

NORAD 67105 · 2025-299D

PAYLOAD ACTIVE UNKNOWN

§ Identity

Operator
Country
US
Launch date
2025-12-15
Launch site
AFETR
Launch vehicle
Mass (kg)
RCS (m²)

Purposes: comms

External: N2YO · Heavens-Above · Gunter

§ Orbital elements

Epoch: 2026-05-24T22:01:22.392192Z

Period
94.27 min
Inclination
43.0014°
Eccentricity
0.0000078
Mean motion
15.27599601 rev/d
Perigee alt
482.9 km
Apogee alt
483.0 km
Semi-major
6,861.1 km
B*
8.6148e-4
RAAN
98.5629°
Arg perigee
29.1821°
Mean anomaly
330.9035°
Rev number
2,477

§ Raw data

STARLINK-362611 67105U 25299D   26144.91762028  .00023534  00000+0  86148-3 0  99942 67105  43.0014  98.5629 0000078  29.1821 330.9035 15.27599601 24778

JSON: /api/v1/satellites/67105 · /tle

For live sub-satellite position, see the globe view (requires WebGL).

§ Visibility from observer

Set your observer location to see the next 7 days of passes ≥ 10°. The values pass through the URL so the page stays shareable.

No JS? Fill the form by hand. The geolocation button needs JavaScript.